EW5411 Weather Reports


time (UTC)temp
C
wind
direction
speed
KPH
gust
KPH
rain 1hr
cm
rain 24hr
cm
rain mn
cm
humidity
%
barometer
mb
20260510020028 13 22 0.0 4.8 0.00 0.00 0.00 80 1009.3
20260510014529 14 15 1.6 8.0 0.00 0.00 0.00 80 1009.0
20260510013027 14 15 0.0 0.0 0.00 0.00 0.00 81 1008.8
20260510011529 15 355 0.0 0.0 0.00 0.00 0.00 79 1008.6
20260510010026 15 338 0.0 3.2 0.00 0.00 0.00 78 1008.3
20260510004526 16 355 3.2 6.4 0.00 0.00 0.00 76 1008.0
20260510003027 16 17 0.0 6.4 0.00 0.00 0.00 74 1007.8
20260510001524 17 5 1.6 4.8 0.00 0.00 0.00 72 1007.6
20260510000024 18 318 0.0 0.0 0.00 0.00 0.00 67 1007.5
20260509234529 18 318 0.0 0.0 0.00 0.00 0.00 64 1007.5
20260509233022 18 318 0.0 0.0 0.00 0.00 0.00 61 1007.4
20260509231522 19 318 0.0 0.0 0.00 0.00 0.00 60 1007.3
20260509230021 20 318 0.0 0.0 0.00 0.00 0.00 60 1007.1
20260509224520 20 318 0.0 3.2 0.00 0.00 0.00 57 1007.3
20260509223025 20 292 0.0 4.8 0.00 0.00 0.00 59 1007.2
20260509221521 21 294 0.0 3.2 0.00 0.00 0.00 57 1007.2
20260509220021 22 283 1.6 8.0 0.00 0.00 0.00 52 1007.2
20260509214518 22 270 3.2 8.0 0.00 0.00 0.00 50 1007.3
20260509213019 22 294 6.4 16.1 0.00 0.00 0.00 48 1007.2
20260509211517 22 274 3.2 11.3 0.00 0.00 0.00 48 1007.1
20260509210118 22 145 0.0 12.9 0.00 0.00 0.00 50 1006.9
20260509204515 22 223 1.6 11.3 0.00 0.00 0.00 49 1006.9
20260509203013 22 201 3.2 14.5 0.00 0.00 0.00 47 1006.8
20260509201512 22 171 6.4 19.3 0.00 0.00 0.00 50 1006.8
20260509200010 21 171 1.6 11.3 0.00 0.00 0.00 52 1006.8
20260509194506 21 217 3.2 11.3 0.00 0.00 0.00 54 1007.2
20260509193011 21 232 6.4 16.1 0.00 0.00 0.00 53 1007.5
20260509191502 21 107 3.2 11.3 0.00 0.00 0.00 55 1007.6
20260509190109 21 250 4.8 16.1 0.00 0.00 0.00 56 1007.8
20260509184557 21 188 3.2 16.1 0.00 0.00 0.00 57 1008.0
20260509183053 21 265 3.2 19.3 0.00 0.00 0.00 59 1008.2
20260509181553 20 181 3.2 14.5 0.00 0.00 0.00 64 1008.4
20260509180053 20 207 3.2 9.7 0.00 0.00 0.00 60 1008.8
20260509174545 20 190 1.6 8.0 0.00 0.00 0.00 58 1009.0
20260509173042 20 220 3.2 11.3 0.00 0.00 0.00 61 1009.1
20260509171545 20 183 3.2 11.3 0.00 0.00 0.00 59 1009.2
20260509170040 20 223 8.0 14.5 0.00 0.00 0.00 55 1009.2
20260509164547 19 204 4.8 12.9 0.00 0.00 0.00 59 1009.3
20260509163038 18 263 3.2 14.5 0.00 0.00 0.00 58 1009.3
20260509161535 18 215 6.4 16.1 0.00 0.00 0.00 59 1009.4
20260509160033 18 213 4.8 17.7 0.00 0.00 0.00 60 1009.5
20260509154530 18 291 6.4 17.7 0.00 0.00 0.00 61 1009.8
20260509153028 17 219 4.8 16.1 0.00 0.00 0.00 61 1009.6
20260509151527 17 253 8.0 19.3 0.00 0.00 0.00 60 1009.5
20260509150034 18 138 8.0 19.3 0.00 0.00 0.00 61 1009.6
20260509144531 17 146 9.7 12.9 0.00 0.00 0.00 60 1009.4
20260509143022 17 146 4.8 12.9 0.00 0.00 0.00 61 1009.4
20260509141521 16 141 3.2 6.4 0.00 0.00 0.00 63 1009.8
20260509140013 16 175 4.8 11.3 0.00 0.00 0.00 63 1010.1
20260509134512 15 123 1.6 6.4 0.00 0.00 0.00 68 1010.3
20260509133006 14 226 1.6 9.7 0.00 0.00 0.00 67 1010.4
20260509131507 14 145 4.8 9.7 0.00 0.00 0.00 70 1010.4
20260509130059 13 135 0.0 1.6 0.00 0.00 0.00 72 1010.3
20260509124556 13 57 0.0 3.2 0.00 0.00 0.00 70 1010.3
20260509123055 12 106 0.0 4.8 0.00 0.00 0.00 75 1010.4
20260509121555 12 147 1.6 4.8 0.00 0.00 0.00 71 1010.4
20260509120055 12 244 0.0 0.0 0.00 0.00 0.00 73 1010.5
20260509114555 11 85 0.0 0.0 0.00 0.00 0.00 76 1010.4
20260509113057 11 194 0.0 0.0 0.00 0.00 0.00 80 1010.3
20260509111552 11 160 0.0 0.0 0.00 0.00 0.00 76 1010.2
20260509110051 11 302 0.0 0.0 0.00 0.00 0.00 77 1010.2
20260509104550 11 16 0.0 0.0 0.00 0.00 0.00 76 1010.2
20260509103052 11 91 0.0 0.0 0.00 0.00 0.00 76 1010.2
20260509101552 11 351 0.0 0.0 0.00 0.00 0.00 73 1010.3
20260509100045 11 283 1.6 3.2 0.00 0.00 0.00 72 1010.3
20260509094545 12 265 0.0 4.8 0.00 0.00 0.00 66 1010.3
20260509093043 12 255 1.6 4.8 0.00 0.00 0.00 65 1010.5
20260509091542 11 272 0.0 4.8 0.00 0.00 0.00 74 1010.6
20260509090041 12 269 0.0 4.8 0.00 0.00 0.00 68 1010.5
20260509084543 12 286 0.0 3.2 0.00 0.00 0.00 62 1010.6
20260509083045 12 282 0.0 3.2 0.00 0.00 0.00 65 1010.7
20260509081543 12 290 0.0 3.2 0.00 0.00 0.00 64 1010.7
20260509080040 12 290 0.0 3.2 0.00 0.00 0.00 61 1010.7
20260509074539 12 284 0.0 0.0 0.00 0.00 0.00 58 1010.9
20260509073035 12 304 0.0 0.0 0.00 0.00 0.00 61 1011.0
20260509071535 11 290 0.0 1.6 0.00 0.00 0.00 64 1011.1
20260509070035 11 298 0.0 0.0 0.00 0.00 0.00 70 1011.1
20260509064535 12 296 0.0 0.0 0.00 0.00 0.00 68 1011.1
20260509063028 12 296 0.0 3.2 0.00 0.00 0.00 63 1011.3
20260509061529 11 296 0.0 1.6 0.00 0.00 0.00 66 1011.4
20260509060027 11 296 0.0 3.2 0.00 0.00 0.00 64 1011.6
20260509054525 11 290 0.0 3.2 0.00 0.00 0.00 65 1011.5
20260509053021 12 146 0.0 3.2 0.00 0.00 0.00 61 1011.7
20260509051521 12 355 0.0 0.0 0.00 0.00 0.00 55 1011.7
20260509050020 12 348 0.0 3.2 0.00 0.00 0.00 55 1011.5
20260509044519 12 347 0.0 1.6 0.00 0.00 0.00 59 1011.5
20260509043018 12 285 0.0 3.2 0.00 0.00 0.00 59 1011.5
20260509041516 13 252 0.0 3.2 0.00 0.00 0.00 59 1011.6
20260509040013 13 287 0.0 1.6 0.00 0.00 0.00 63 1011.7
20260509034534 13 229 0.0 3.2 0.00 0.00 0.00 57 1011.8
20260509033012 13 290 0.0 3.2 0.00 0.00 0.00 58 1011.9
20260509031511 13 284 0.0 3.2 0.00 0.00 0.00 58 1012.0
20260509030011 13 285 1.6 3.2 0.00 0.00 0.00 58 1012.0
20260509024510 14 257 1.6 3.2 0.00 0.00 0.00 55 1012.1
20260509023009 14 265 1.6 6.4 0.00 0.00 0.00 57 1012.1
20260509021508 14 258 0.0 3.2 0.00 0.00 0.00 55 1012.1